[[{"header":{"parameterUnit":"m.s-1","parameterCategory":1,"la1":30.2991,"la2":30.254,"lo1":-89.0895,"lo2":-89.0444,"dy":0.0017,"dx":0.0017,"nx":28,"ny":28,"refTime":"2024-03-27T09:00:00:Z","depth":0,"parameterNumber":2,"parameterNumberName":"U-component_of_WINDS"},"data":[0,0,0,0,0,0,0,0,0,0,0,0,0,0,0,0,0,0,0,0,0,0,0,0,0,0,0,0,0,0,0,0,0,0,0,0,0,0,0,0,0,0,0,0,0,0,0,0,0,0,0,0,0,0,0,0,0,0,-0.889,-0.889,0,-0.8856,-0.8856,-0.8856,-0.8832,-0.8832,-0.8832,-0.8831,-0.8797,-0.8796,-0.8795,0,0,0,0,0,0,0,0,0,0,0,0,0,-0.8933,-0.8933,-0.889,-0.889,-0.8889,-0.8856,-0.8856,-0.8855,-0.8832,-0.8832,-0.8832,-0.8831,-0.8797,-0.8796,-0.8795,0,0,0,0,0,0,0,0,0,0,0,0,0,-0.8909,-0.8933,-0.889,-0.8874,-0.8872,-0.8856,-0.8856,-0.8855,-0.8832,-0.8832,-0.8832,-0.8831,-0.8797,-0.8796,-0.8795,-0.8793,0,0,-0.8792,-0.8791,0,0,0,0,0,0,0,0,-0.891,-0.8907,-0.8877,-0.8875,-0.8873,-0.8848,-0.8858,-0.8835,-0.8832,-0.8847,-0.8831,-0.8831,-0.8814,-0.8812,-0.8806,-0.8792,-0.879,-0.8792,-0.8791,-0.879,-0.879,0,0,0,0,0,0,0,-0.8912,-0.8908,-0.8877,-0.8876,-0.8874,-0.8868,-0.8864,-0.8854,-0.8833,-0.8846,-0.8844,-0.884,-0.8813,-0.8807,-0.8805,-0.879,-0.8792,-0.8791,-0.879,-0.8789,-0.8771,-0.8771,0,0,0,0,0,0,-0.8916,-0.891,-0.8878,-0.8876,-0.8891,-0.8867,-0.8863,-0.8856,-0.8833,-0.8829,-0.8841,-0.8839,-0.8809,-0.8806,-0.8803,-0.8799,-0.879,-0.8789,-0.8789,-0.8771,-0.8771,-0.8772,0,0,0,0,0,0,-0.8917,-0.8914,-0.8879,-0.8892,-0.8888,-0.8867,-0.886,-0.8856,-0.885,-0.8829,-0.8825,-0.8838,-0.8809,-0.8805,-0.8796,-0.8798,-0.8789,-0.8788,-0.8771,-0.8771,-0.8771,-0.8791,0,0,0,0,0,0,-0.8919,-0.8914,-0.8914,-0.8893,-0.8887,-0.8873,-0.886,-0.8855,-0.8848,-0.8846,-0.8826,-0.8822,-0.8808,-0.8798,-0.8795,-0.8796,-0.8787,-0.8771,-0.8771,-0.8771,-0.879,-0.8792,-0.8794,0,0,0,0,0,-0.892,-0.8921,-0.8914,-0.891,-0.8886,-0.8873,-0.8869,-0.8854,-0.8848,-0.8847,-0.8833,-0.8823,-0.8798,-0.8797,-0.8793,-0.8794,-0.877,-0.8771,-0.8771,-0.8789,-0.8792,-0.8793,0,0,0,0,0,0,-0.8943,-0.8918,-0.891,-0.8904,-0.889,-0.8869,-0.8867,-0.8857,-0.8845,-0.8844,-0.8824,-0.882,-0.8813,-0.8802,-0.8802,-0.8791,-0.8783,-0.8783,-0.8798,-0.88,-0.8801,-0.8804,-0.8786,0,0,0,0,0,-0.8947,-0.8939,-0.8917,-0.8914,-0.8908,-0.8889,-0.8882,-0.8871,-0.8857,-0.8851,-0.8837,-0.8823,-0.8812,-0.8805,-0.8794,-0.8788,-0.8783,-0.8787,-0.8789,-0.879,-0.879,-0.8785,-0.8787,-0.8773,-0.8773,-0.8773,0,0,-0.8956,-0.8941,-0.8937,-0.8918,-0.8907,-0.8898,-0.8884,-0.8876,-0.8869,-0.885,-0.884,-0.8829,-0.8812,-0.8804,-0.88,-0.8796,-0.8793,-0.8791,-0.8792,-0.8791,-0.8786,-0.8787,-0.8789,-0.8773,-0.8773,-0.8773,0,0,-0.8968,-0.8956,-0.8951,-0.894,-0.8922,-0.8909,-0.8908,-0.8888,-0.888,-0.8869,-0.8855,-0.8846,-0.8828,-0.8816,-0.8808,-0.8813,-0.8803,-0.881,-0.8819,-0.8815,-0.8816,-0.8817,-0.8818,-0.8819,-0.881,-0.881,-0.881,0,-0.8981,-0.8967,-0.895,-0.8942,-0.8934,-0.8916,-0.891,-0.89,-0.888,-0.8874,-0.8869,-0.8845,-0.8833,-0.8822,-0.8823,-0.8817,-0.8814,-0.8813,-0.8817,-0.8818,-0.8818,-0.8819,-0.882,-0.8811,-0.8811,-0.8811,-0.8811,0,-0.8984,-0.8975,-0.8973,-0.8954,-0.8945,-0.8938,-0.892,-0.8913,-0.8902,-0.8889,-0.8879,-0.8863,-0.8848,-0.8844,-0.8834,-0.8831,-0.8829,-0.8821,-0.8812,-0.8821,-0.8821,-0.8822,-0.8813,-0.8812,-0.8812,-0.8812,0,0,-0.901,-0.898,-0.898,-0.897,-0.8949,-0.8941,-0.8933,-0.8918,-0.8912,-0.8899,-0.8891,-0.8875,-0.8867,-0.8858,-0.8846,-0.8842,-0.8846,-0.8834,-0.8834,-0.8837,-0.8841,-0.8847,-0.8848,-0.8839,-0.8839,-0.8839,-0.8842,0,-0.9018,-0.9003,-0.8987,-0.8977,-0.8968,-0.895,-0.8943,-0.8929,-0.8916,-0.8906,-0.8893,-0.8882,-0.8872,-0.8866,-0.8862,-0.8847,-0.8847,-0.8847,-0.8831,-0.8831,-0.8836,-0.8848,-0.8855,-0.8859,-0.8843,-0.8843,-0.8843,0,-0.9025,-0.9012,-0.9002,-0.898,-0.8976,-0.897,-0.8954,-0.8945,-0.8928,-0.8919,-0.8908,-0.8895,-0.8885,-0.8877,-0.8863,-0.8863,-0.8856,-0.8847,-0.8847,-0.8845,-0.8837,-0.8846,-0.886,-0.886,-0.8843,-0.8843,-0.8843,0,-0.9044,-0.9024,-0.9015,-0.9007,-0.8982,-0.8978,-0.8967,-0.895,-0.8942,-0.8928,-0.8922,-0.8907,-0.8899,-0.8887,-0.887,-0.8867,-0.8857,-0.8849,-0.8849,-0.885,-0.8848,-0.8849,-0.8861,-0.8844,-0.8844,-0.8844,-0.8844,0,-0.9055,-0.9049,-0.9023,-0.9017,-0.901,-0.8991,-0.8984,-0.8971,-0.8956,-0.8947,-0.8931,-0.8923,-0.8901,-0.889,-0.8877,-0.8866,-0.8863,-0.8855,-0.8851,-0.8856,-0.8857,-0.8851,-0.885,-0.8844,-0.8844,-0.8844,-0.8844,0,-0.9075,-0.9057,-0.9046,-0.9023,-0.9017,-0.9012,-0.8992,-0.8986,-0.8972,-0.8961,-0.8957,-0.8936,-0.8922,-0.8904,-0.8884,-0.8875,-0.8866,-0.8861,-0.8872,-0.887,-0.8871,-0.8871,-0.8879,-0.8879,-0.8863,-0.8864,-0.8864,0,-0.9082,-0.9078,-0.9054,-0.9046,-0.9036,-0.9025,-0.9016,-0.8997,-0.8988,-0.8968,-0.8963,-0.8948,-0.8935,-0.8914,-0.8896,-0.8881,-0.8875,-0.8879,-0.8873,-0.8877,-0.8874,-0.8875,-0.8874,-0.8881,-0.8881,-0.8881,-0.8881,0,-0.9098,-0.9089,-0.9077,-0.9061,-0.9051,-0.9038,-0.9024,-0.9019,-0.8996,-0.8987,-0.8973,-0.8962,-0.8942,-0.8927,-0.8909,-0.8898,-0.8885,-0.8883,-0.8882,-0.8887,-0.8894,-0.8889,-0.8876,-0.8883,-0.8883,-0.8883,-0.8883,-0.8883,-0.9112,-0.9106,-0.9088,-0.9074,-0.9062,-0.9049,-0.9041,-0.9026,-0.9014,-0.8996,-0.8985,-0.8971,-0.8953,-0.8928,-0.8916,-0.8904,-0.89,-0.8899,-0.8899,-0.8899,-0.89,-0.8896,-0.8901,-0.8901,-0.8901,-0.8901,-0.8901,0,-0.9126,-0.9113,-0.9101,-0.9081,-0.907,-0.906,-0.9043,-0.9035,-0.9023,-0.9007,-0.8994,-0.8977,-0.8962,-0.8943,-0.8926,-0.892,-0.8914,-0.8916,-0.8916,-0.8914,-0.8905,-0.8907,-0.8921,-0.8921,-0.8921,-0.8921,-0.8921,-0.8921,-0.9132,-0.9121,-0.911,-0.9093,-0.908,-0.9066,-0.9057,-0.9045,-0.9032,-0.9013,-0.9001,-0.8988,-0.8971,-0.8952,-0.8938,-0.8932,-0.8927,-0.8931,-0.8924,-0.8916,-0.8915,-0.8913,-0.8915,-0.893,-0.893,-0.8933,-0.8933,-0.8933]},{"header":{"parameterUnit":"m.s-1","parameterCategory":1,"la1":30.2991,"la2":30.254,"lo1":-89.0895,"lo2":-89.0444,"dy":0.0017,"dx":0.0017,"nx":28,"ny":28,"refTime":"2024-03-27T09:00:00:Z","depth":0,"parameterNumber":3,"parameterNumberName":"V-component_of_WINDS"},"data":[0,0,0,0,0,0,0,0,0,0,0,0,0,0,0,0,0,0,0,0,0,0,0,0,0,0,0,0,0,0,0,0,0,0,0,0,0,0,0,0,0,0,0,0,0,0,0,0,0,0,0,0,0,0,0,0,0,0,-4.4906,-4.4907,0,-4.497,-4.4971,-4.4972,-4.4981,-4.4981,-4.498,-4.498,-4.5041,-4.5043,-4.5045,0,0,0,0,0,0,0,0,0,0,0,0,0,-4.479,-4.4792,-4.4906,-4.4907,-4.4908,-4.497,-4.4971,-4.4972,-4.4982,-4.4981,-4.498,-4.498,-4.504,-4.5042,-4.5045,0,0,0,0,0,0,0,0,0,0,0,0,0,-4.4845,-4.4792,-4.4906,-4.492,-4.4922,-4.497,-4.4971,-4.4972,-4.4982,-4.4981,-4.498,-4.4979,-4.5039,-4.5042,-4.5045,-4.5082,0,0,-4.5055,-4.5057,0,0,0,0,0,0,0,0,-4.4842,-4.485,-4.4918,-4.492,-4.4922,-4.4967,-4.4952,-4.5009,-4.4982,-4.4959,-4.498,-4.4979,-4.5017,-4.5022,-4.5035,-4.5085,-4.5088,-4.5055,-4.5057,-4.5059,-4.506,0,0,0,0,0,0,0,-4.4838,-4.4847,-4.4932,-4.4918,-4.4921,-4.4923,-4.493,-4.4963,-4.4992,-4.4961,-4.4962,-4.497,-4.5018,-4.5032,-4.5037,-4.5088,-4.5055,-4.5058,-4.506,-4.5062,-4.5174,-4.5175,0,0,0,0,0,0,-4.4832,-4.4844,-4.493,-4.4934,-4.4879,-4.4925,-4.4933,-4.4953,-4.4991,-4.4996,-4.497,-4.497,-4.5027,-4.5033,-4.5039,-4.5086,-4.5059,-4.5062,-4.5064,-4.5173,-4.5174,-4.5175,0,0,0,0,0,0,-4.483,-4.484,-4.4927,-4.4889,-4.49,-4.4928,-4.4951,-4.4955,-4.497,-4.4998,-4.5003,-4.498,-4.5027,-4.5034,-4.5072,-4.5089,-4.5063,-4.5066,-4.5172,-4.5173,-4.5175,-4.518,0,0,0,0,0,0,-4.4827,-4.4839,-4.4854,-4.4889,-4.4902,-4.496,-4.4952,-4.4957,-4.4976,-4.4976,-4.5009,-4.5014,-4.5027,-4.5067,-4.5075,-4.5093,-4.5069,-4.517,-4.5173,-4.5174,-4.5179,-4.5182,-4.5185,0,0,0,0,0,-4.4822,-4.4851,-4.4855,-4.4865,-4.4921,-4.4961,-4.4968,-4.4984,-4.4977,-4.4992,-4.5011,-4.5012,-4.5085,-4.5071,-4.508,-4.5099,-4.5169,-4.5172,-4.5174,-4.5177,-4.5181,-4.5184,0,0,0,0,0,0,-4.4814,-4.4856,-4.486,-4.4901,-4.4928,-4.4963,-4.4982,-4.4987,-4.5015,-4.5013,-4.503,-4.5038,-4.5075,-4.509,-4.5074,-4.5137,-4.5127,-4.5131,-4.5126,-4.513,-4.5133,-4.5128,-4.5071,0,0,0,0,0,-4.4818,-4.4848,-4.4882,-4.4915,-4.4928,-4.4953,-4.497,-4.4981,-4.5008,-4.5019,-4.504,-4.5065,-4.5095,-4.5113,-4.5141,-4.5181,-4.5189,-4.5198,-4.5201,-4.5203,-4.5207,-4.5231,-4.5236,-4.5183,-4.5183,-4.5183,0,0,-4.4824,-4.4851,-4.4868,-4.4914,-4.4936,-4.4966,-4.4962,-4.4993,-4.5016,-4.5023,-4.5061,-4.5078,-4.5107,-4.5147,-4.5166,-4.5161,-4.5224,-4.5206,-4.5208,-4.521,-4.5234,-4.5239,-4.5244,-4.5185,-4.5185,-4.5184,0,0,-4.4852,-4.4875,-4.4906,-4.4929,-4.4963,-4.498,-4.4987,-4.5022,-4.5034,-4.5073,-4.508,-4.5106,-4.5155,-4.5176,-4.5194,-4.5233,-4.5236,-4.5241,-4.5256,-4.528,-4.5284,-4.5288,-4.5303,-4.5308,-4.5245,-4.5245,-4.5245,0,-4.4855,-4.4903,-4.4921,-4.4954,-4.4974,-4.4985,-4.5017,-4.5037,-4.5077,-4.5091,-4.5086,-4.515,-4.517,-4.5216,-4.5226,-4.5239,-4.5249,-4.5237,-4.5282,-4.5286,-4.529,-4.5305,-4.531,-4.5245,-4.5245,-4.5245,-4.5245,0,-4.4906,-4.4939,-4.496,-4.5002,-4.5024,-4.5056,-4.5079,-4.51,-4.5109,-4.5126,-4.5166,-4.5191,-4.5226,-4.5237,-4.5245,-4.5285,-4.5282,-4.5279,-4.5269,-4.5295,-4.531,-4.5315,-4.5246,-4.5246,-4.5246,-4.5245,0,0,-4.4929,-4.4983,-4.4991,-4.5011,-4.5051,-4.5076,-4.5108,-4.5144,-4.5162,-4.519,-4.5218,-4.5261,-4.526,-4.5279,-4.529,-4.531,-4.5342,-4.5306,-4.5307,-4.5313,-4.539,-4.5392,-4.5399,-4.5344,-4.5346,-4.5346,-4.5388,0,-4.4962,-4.5023,-4.5042,-4.5092,-4.5123,-4.5135,-4.5164,-4.5191,-4.5208,-4.5236,-4.5254,-4.5285,-4.5281,-4.5293,-4.5314,-4.5334,-4.5358,-4.5331,-4.5371,-4.5372,-4.5364,-4.5406,-4.5408,-4.5446,-4.5393,-4.5394,-4.5395,0,-4.5009,-4.5041,-4.5096,-4.5134,-4.5148,-4.5173,-4.5209,-4.5236,-4.5267,-4.5278,-4.5302,-4.5311,-4.5346,-4.5334,-4.5382,-4.5363,-4.538,-4.5393,-4.5395,-4.5399,-4.5386,-4.5413,-4.5458,-4.5464,-4.5404,-4.5403,-4.5402,0,-4.5022,-4.5079,-4.512,-4.5136,-4.5181,-4.5199,-4.5219,-4.5249,-4.5271,-4.5301,-4.5315,-4.5349,-4.5367,-4.5393,-4.5411,-4.54,-4.5458,-4.5447,-4.5468,-4.5468,-4.548,-4.5479,-4.553,-4.549,-4.549,-4.549,-4.5489,0,-4.5058,-4.5091,-4.5127,-4.5151,-4.5189,-4.5211,-4.5247,-4.5267,-4.5294,-4.5323,-4.5334,-4.536,-4.5383,-4.5412,-4.5426,-4.5465,-4.5473,-4.5483,-4.5486,-4.5482,-4.5481,-4.5494,-4.5492,-4.5491,-4.5491,-4.549,-4.549,0,-4.5079,-4.5104,-4.515,-4.519,-4.5201,-4.5227,-4.5261,-4.5286,-4.5304,-4.5341,-4.535,-4.5379,-4.5414,-4.5436,-4.5479,-4.5489,-4.5532,-4.5534,-4.5522,-4.5524,-4.5545,-4.5543,-4.5607,-4.5617,-4.5569,-4.5569,-4.5569,0,-4.5101,-4.5127,-4.5172,-4.5193,-4.5213,-4.5247,-4.527,-4.5292,-4.5315,-4.5354,-4.5374,-4.5411,-4.5441,-4.5497,-4.5522,-4.5556,-4.5559,-4.5579,-4.5564,-4.556,-4.5561,-4.556,-4.5563,-4.5581,-4.5582,-4.5582,-4.5582,0,-4.5137,-4.5149,-4.5182,-4.5221,-4.5249,-4.5279,-4.531,-4.5326,-4.5353,-4.5379,-4.5417,-4.5441,-4.5487,-4.5524,-4.5561,-4.5579,-4.5586,-4.5587,-4.5594,-4.5591,-4.5584,-4.559,-4.5531,-4.5586,-4.5585,-4.5585,-4.5585,-4.5585,-4.516,-4.5185,-4.5221,-4.5259,-4.5285,-4.5314,-4.534,-4.5363,-4.5396,-4.5437,-4.5448,-4.5488,-4.552,-4.5571,-4.5591,-4.5622,-4.5618,-4.5628,-4.5631,-4.5633,-4.5635,-4.5579,-4.5628,-4.5628,-4.5628,-4.5628,-4.5628,0,-4.5198,-4.5223,-4.5257,-4.5301,-4.5331,-4.5337,-4.5371,-4.5396,-4.5432,-4.5462,-4.5493,-4.5537,-4.5574,-4.5602,-4.5639,-4.5658,-4.5662,-4.5668,-4.5667,-4.5671,-4.5635,-4.5626,-4.5664,-4.5664,-4.5664,-4.5664,-4.5664,-4.5664,-4.5222,-4.5265,-4.5282,-4.5338,-4.5362,-4.5404,-4.5423,-4.545,-4.5475,-4.5525,-4.5556,-4.5575,-4.5605,-4.5645,-4.5679,-4.5686,-4.5699,-4.5704,-4.5712,-4.5677,-4.5673,-4.567,-4.5662,-4.5707,-4.5707,-4.5746,-4.5747,-4.5747]}]]